Location: Humble ISD Astronomical Observatory
(29.9680°N, 95.2620°W)
Time: 01:57:49
(UTC-05:00)

Tiangong 2 - Pass Details

Date: 21 March 2019
Orbit: 378 x 390 km, 42.8° (Epoch: 24 April)

Event Time Altitude Azimuth Distance (km) Brightness Sun altitude
Exits shadow 06:49:13 - 312° (NW) 1,924 4.2 -8.3°
Reaches altitude 10° 06:50:33 10° 319° (NW) 1,400 3.6 -8.1°
Maximum altitude 06:53:31 36° 29° (NNE) 620 2.5 -7.4°
Drops below altitude 10° 06:56:29 10° 98° (E) 1,403 5.5 -6.8°
Sets 06:58:39 0° 107° (ESE) 2,257 6.5 -6.3°
